1496278801.02,16155,16.88,74024.5,1.91,-36.01,-36.25,0,*74
1496278802.25,16156,16.94,74038.8,1.89,-35.77,-36.01,0,*7A
1496278803.48,16157,16.94,74040.3,1.91,-36.19,-36.61,0,*7F
1496278804.7,16158,16.94,74046.5,1.89,-36.19,-36.73,0,*7A
1496278805.95,16159,16.88,74022.8,1.89,-36.43,-36.79,0,*7E
1496278807.19,16160,16.88,74032.3,1.89,-36.61,-36.97,0,*74
1496278808.44,16161,16.94,74036.0,1.85,-36.49,-36.97,0,*73
1496278809.66,16162,16.94,74028.5,1.85,-36.43,-36.85,0,*79
1496278810.88,16163,16.94,74024.8,1.83,-36.61,-36.85,0,*7E
1496278812.16,16164,16.94,74024.3,1.85,-36.25,-36.61,0,*75
1496278813.37,16165,16.94,74042.0,1.83,-36.01,-36.01,0,*72
1496278814.57,16166,16.94,74058.8,1.83,-35.71,-36.01,0,*75
1496278815.81,16167,16.94,74024.3,1.83,-35.83,-35.89,0,*7A
1496278817.04,16168,16.88,74004.3,1.83,-36.01,-36.25,0,*79
1496278818.26,16169,16.94,74024.5,1.83,-36.13,-36.31,0,*7E
1496278819.51,16170,16.88,74026.3,1.83,-35.35,-35.53,0,*76
1496278820.72,16171,16.88,74028.3,1.83,-35.89,-36.01,0,*74
1496278821.99,16172,16.94,74026.0,1.85,-36.13,-36.49,0,*7D
1496278823.21,16173,16.88,74022.3,1.83,-36.13,-36.43,0,*70
1496278824.45,16174,16.88,74022.0,1.83,-36.13,-36.49,0,*7D
1496278825.71,16175,16.88,74012.5,1.85,-36.25,-36.67,0,*73
1496278826.93,16176,16.94,74028.5,1.83,-36.13,-36.43,0,*75
1496278828.16,16177,16.88,74014.8,1.85,-36.07,-36.31,0,*72
1496278829.38,16178,16.94,74028.3,1.83,-36.07,-36.49,0,*74
1496278830.59,16179,16.88,74024.3,1.83,-35.71,-36.01,0,*7B
1496278831.81,16180,16.88,74012.8,1.83,-34.83,-35.17,0,*75
1496278833.04,16181,16.94,74004.3,1.83,-35.17,-35.53,0,*78
1496278834.26,16182,16.94,74008.5,1.83,-35.17,-35.53,0,*7B
1496278835.51,16183,16.88,74014.5,1.85,-35.01,-35.35,0,*7B
1496278836.77,16184,16.94,74028.0,1.85,-34.77,-34.95,0,*77
1496278838.04,16185,16.94,74016.5,1.85,-34.19,-34.53,0,*74
1496278839.3,16186,16.88,74024.5,1.89,-34.31,-34.47,0,*74
1496278840.56,16187,16.88,74020.5,1.89,-34.95,-35.13,0,*7B
1496278841.79,16188,16.94,74040.0,1.89,-34.71,-35.13,0,*7E
1496278843.06,16189,16.88,74002.3,1.89,-35.07,-35.23,0,*7C
1496278844.26,16190,16.88,73964.3,1.91,-35.29,-35.59,0,*7C
1496278845.52,16191,16.88,74002.5,1.91,-35.95,-36.25,0,*72
1496278846.79,16192,16.88,73992.0,1.93,-36.13,-36.49,0,*74
1496278848.04,16193,16.94,74060.5,1.93,-36.13,-36.31,0,*7A
1496278849.28,16194,16.94,74046.0,1.91,-35.47,-35.83,0,*77
1496278850.55,16195,16.88,74036.3,1.93,-35.35,-35.41,0,*7F
1496278851.78,16196,16.88,74052.8,1.91,-35.47,-35.83,0,*75
1496278852.99,16197,16.88,74050.8,1.91,-35.59,-35.77,0,*70
1496278854.21,16198,16.94,74050.5,1.91,-35.47,-35.65,0,*73
1496278855.42,16199,16.88,74018.5,1.91,-35.59,-35.77,0,*7E
1496278856.65,16200,16.88,74000.3,1.93,-35.71,-35.77,0,*75
1496278857.9,16201,16.88,74014.0,1.93,-35.35,-35.59,0,*78
1496278859.15,16202,16.88,74000.8,1.93,-35.53,-35.77,0,*77
1496278860.38,16203,16.88,73994.0,1.93,-35.59,-35.89,0,*7D
1496278861.63,16204,16.88,74000.3,1.93,-35.95,-36.19,0,*70
1496278862.83,16205,16.88,73994.5,1.91,-36.01,-36.19,0,*7D
1496278864.08,16206,16.88,74000.0,1.93,-36.01,-36.37,0,*70
1496278865.35,16207,16.88,74000.3,1.93,-36.13,-36.37,0,*72
1496278866.61,16208,16.88,74014.8,1.93,-36.13,-36.55,0,*79
1496278867.85,16209,16.88,74036.0,1.93,-36.13,-36.31,0,*7A
1496278869.11,16210,16.88,74040.8,1.93,-35.95,-36.19,0,*75
1496278870.35,16211,16.88,74050.0,1.93,-35.35,-35.71,0,*73
1496278871.61,16212,16.88,74032.3,1.93,-34.83,-35.17,0,*7C
1496278872.86,16213,16.88,74034.5,1.93,-34.65,-34.89,0,*73
1496278874.12,16214,16.88,74020.0,1.95,-34.65,-35.07,0,*75
1496278875.37,16215,16.88,74004.3,1.93,-35.23,-35.59,0,*7A
1496278876.6,16216,16.88,73984.3,1.95,-35.35,-35.77,0,*74
1496278877.83,16217,16.88,73968.0,1.95,-35.35,-35.77,0,*75
1496278879.03,16218,16.88,73994.3,1.95,-35.77,-36.19,0,*77
1496278880.25,16219,16.88,73992.8,1.95,-36.01,-36.49,0,*71
1496278881.5,16220,16.94,74026.3,1.93,-36.19,-36.49,0,*74
1496278882.74,16221,16.88,74010.3,1.95,-36.13,-36.37,0,*70
1496278883.99,16222,16.88,74028.3,1.97,-36.13,-36.31,0,*77
1496278885.24,16223,16.88,74030.3,1.97,-36.25,-36.43,0,*76
1496278886.45,16224,16.88,74016.0,1.95,-36.31,-36.55,0,*71
1496278887.72,16225,16.88,74032.0,1.93,-36.13,-36.49,0,*7B
1496278888.92,16226,16.88,74042.0,1.95,-36.01,-36.19,0,*78
1496278890.14,16227,16.88,74034.5,1.95,-35.77,-35.89,0,*71
1496278891.37,16228,16.88,74048.8,1.93,-35.59,-35.89,0,*74
1496278892.61,16229,16.88,74028.3,1.95,-36.13,-36.49,0,*71
1496278893.85,16230,16.88,74004.5,1.93,-36.31,-36.55,0,*72
1496278895.08,16231,16.88,74014.5,1.93,-36.55,-36.67,0,*70
1496278896.33,16232,16.88,74046.3,1.93,-36.49,-36.85,0,*72
1496278897.6,16233,16.88,74038.3,1.93,-36.37,-36.49,0,*7A
1496278898.83,16234,16.88,74030.5,1.89,-36.01,-36.19,0,*76
1496278900.05,16235,16.88,74050.0,1.91,-35.41,-35.47,0,*71
1496278901.28,16236,16.88,74054.8,1.91,-35.13,-35.41,0,*73
1496278902.51,16237,16.88,74036.5,1.91,-34.53,-34.77,0,*73
1496278903.77,16238,16.88,74040.8,1.91,-34.65,-34.95,0,*75
1496278904.98,16239,16.88,74052.0,1.91,-34.77,-34.89,0,*7A
1496278906.19,16240,16.88,74030.5,1.95,-34.59,-35.01,0,*7D
1496278907.42,16241,16.88,74024.8,1.95,-34.31,-34.47,0,*71
1496278908.66,16242,16.88,74034.0,1.95,-34.47,-34.65,0,*73
1496278909.89,16243,16.88,74036.5,1.95,-34.47,-34.83,0,*7A
1496278911.08,16244,16.88,74044.8,1.95,-34.25,-34.41,0,*77
1496278912.34,16245,16.88,73994.3,1.97,-34.59,-34.95,0,*76
1496278913.59,16246,16.88,73974.0,1.97,-34.65,-35.01,0,*76
1496278914.82,16247,16.88,73980.3,1.99,-34.59,-35.07,0,*70
1496278916.08,16248,16.88,73998.3,1.97,-34.95,-35.47,0,*75
1496278917.33,16249,16.88,74006.8,1.97,-35.01,-35.35,0,*7D
1496278918.59,16250,16.88,73970.0,1.99,-34.95,-35.41,0,*74
1496278919.82,16251,16.88,73986.8,1.99,-34.59,-35.07,0,*77
1496278921.05,16252,16.88,73996.5,1.99,-34.53,-34.77,0,*78
1496278922.28,16253,16.88,73992.0,2.01,-34.89,-35.29,0,*76
1496278923.54,16254,16.88,74006.0,2.01,-34.59,-35.07,0,*70
1496278924.77,16255,16.88,73994.8,2.03,-35.01,-35.41,0,*7D
1496278926.02,16256,16.88,74006.0,2.01,-35.29,-35.65,0,*70
1496278927.3,16257,16.88,74014.8,2.01,-35.23,-35.65,0,*7B
1496278928.55,16258,16.88,74020.5,2.01,-35.13,-35.41,0,*71
1496278929.77,16259,16.88,74020.0,2.03,-35.17,-35.53,0,*75
1496278931.0,16260,16.88,74000.3,2.03,-35.35,-35.59,0,*75
1496278932.25,16261,16.88,74012.0,2.03,-35.83,-36.13,0,*74
1496278933.5,16262,16.88,74010.5,2.03,-35.95,-36.13,0,*70
1496278934.73,16263,16.88,73986.5,2.03,-36.01,-36.13,0,*7F
1496278935.98,16264,16.88,73988.8,2.01,-36.07,-36.37,0,*7A
1496278937.2,16265,16.88,73992.0,2.03,-36.19,-36.37,0,*76
1496278938.45,16266,16.88,74018.0,2.01,-36.07,-36.37,0,*78
1496278939.68,16267,16.88,74018.8,2.01,-36.19,-36.55,0,*72
1496278940.94,16268,16.88,74012.8,2.01,-36.01,-36.25,0,*73
1496278942.16,16269,16.88,74024.3,2.01,-35.29,-35.59,0,*73
1496278943.43,16270,16.88,74022.5,2.01,-35.41,-35.65,0,*7A
1496278944.69,16271,16.88,74036.3,2.01,-35.65,-36.01,0,*7C
1496278945.95,16272,16.88,74020.8,2.01,-35.41,-35.65,0,*78
1496278947.21,16273,16.88,74032.3,2.01,-35.89,-36.25,0,*7A
1496278948.46,16274,16.88,74034.5,2.01,-36.07,-36.61,0,*78
1496278949.66,16275,16.88,74008.0,1.99,-36.07,-36.43,0,*7B
1496278950.92,16276,16.88,73964.3,1.99,-35.07,-35.41,0,*7A
1496278952.15,16277,16.88,73986.0,1.99,-34.95,-35.13,0,*76
1496278953.38,16278,16.88,74024.8,2.01,-34.47,-34.71,0,*71
1496278954.62,16279,16.88,74034.3,2.03,-34.47,-34.65,0,*77
1496278955.87,16280,16.88,74036.3,2.03,-34.31,-34.31,0,*71
1496278957.09,16281,16.88,74048.8,2.07,-34.19,-34.25,0,*7B
1496278958.34,16282,16.88,74056.5,2.05,-34.31,-34.47,0,*74
1496278959.57,16283,16.88,74040.5,2.07,-34.77,-34.83,0,*7D
1496278960.77,16284,16.88,74038.3,2.11,-35.47,-35.47,0,*76
1496278961.97,16285,16.88,74060.3,2.07,-35.77,-35.71,0,*76
1496278963.23,16286,16.88,74042.0,2.07,-35.95,-36.25,0,*7B
1496278964.46,16287,16.88,74034.8,2.07,-35.89,-35.95,0,*7F
1496278965.68,16288,16.88,74044.5,2.07,-35.95,-36.07,0,*75
1496278966.9,16289,16.88,74022.8,2.07,-35.71,-35.65,0,*79
1496278968.17,16290,16.88,74014.8,2.05,-35.41,-35.41,0,*76
1496278969.38,16291,16.88,74018.0,2.07,-35.29,-35.29,0,*75
1496278970.6,16292,16.88,74012.8,2.07,-35.29,-35.35,0,*7B
1496278971.82,16293,16.88,74042.0,2.07,-35.47,-35.53,0,*72
1496278973.04,16294,16.88,74028.5,2.07,-35.71,-35.65,0,*75
1496278974.3,16295,16.88,74026.0,2.05,-36.01,-36.13,0,*70
1496278975.53,16296,16.88,74048.8,2.07,-35.77,-35.95,0,*7E
1496278976.78,16297,16.88,74052.5,2.05,-35.95,-36.19,0,*76
1496278977.98,16298,16.88,74036.8,2.07,-36.01,-36.19,0,*75
1496278979.23,16299,16.88,74016.5,2.05,-36.19,-36.37,0,*73
1496278980.48,16300,16.88,74022.5,2.05,-36.13,-36.55,0,*7C
1496278981.75,16301,16.88,74042.8,2.05,-36.13,-36.37,0,*79
1496278983.0,16302,16.88,74030.8,2.05,-35.95,-36.19,0,*7B
1496278984.25,16303,16.88,74024.0,2.05,-36.01,-36.37,0,*78
1496278985.5,16304,16.88,74046.8,2.05,-36.01,-36.37,0,*7F
1496278986.73,16305,16.88,74022.5,2.05,-36.19,-36.55,0,*73
1496278987.97,16306,16.88,74032.3,2.05,-36.55,-36.67,0,*79
1496278989.22,16307,16.88,74038.5,2.01,-36.61,-36.73,0,*7E
1496278990.5,16308,16.88,74048.0,2.01,-36.37,-36.61,0,*71
1496278991.73,16309,16.88,74044.8,2.03,-36.13,-36.55,0,*73
1496278992.96,16310,16.88,74036.8,2.01,-36.19,-36.55,0,*73
1496278994.21,16311,16.88,74036.8,2.01,-36.37,-36.73,0,*7A
1496278995.46,16312,16.88,74028.0,2.01,-36.37,-36.73,0,*79
1496278996.72,16313,16.88,74038.5,2.01,-36.37,-36.73,0,*78
1496278997.99,16314,16.88,74032.0,2.01,-36.25,-36.61,0,*7F
1496278999.26,16315,16.88,74040.3,2.01,-36.25,-36.55,0,*79
1496279000.5,16316,16.88,74046.0,2.01,-36.01,-36.37,0,*78
1496279001.71,16317,16.88,74046.5,1.99,-35.89,-36.01,0,*7D
1496279002.94,16318,16.88,74042.0,1.99,-35.89,-36.25,0,*74
1496279004.2,16319,16.88,74028.5,2.01,-36.01,-36.25,0,*74
1496279005.4,16320,16.88,74024.8,1.99,-35.47,-35.77,0,*79
1496279006.68,16321,16.88,74048.5,2.01,-36.25,-36.61,0,*79
1496279007.9,16322,16.88,74030.8,1.99,-36.55,-36.79,0,*76
1496279009.15,16323,16.88,74034.3,1.97,-36.61,-37.03,0,*72
1496279010.4,16324,16.88,74012.0,1.99,-36.79,-37.21,0,*72
1496279011.65,16325,16.88,74008.3,1.97,-36.67,-37.09,0,*78
1496279012.92,16326,16.88,74038.3,1.97,-36.79,-37.21,0,*7E
1496279014.17,16327,16.88,74046.3,1.99,-36.79,-37.21,0,*71
1496279015.42,16328,16.88,74048.0,1.97,-36.85,-37.39,0,*7A
1496279016.68,16329,16.88,74058.3,1.97,-37.03,-37.39,0,*74
1496279017.93,16330,16.88,74044.0,1.97,-36.85,-37.09,0,*70
1496279019.18,16331,16.88,74052.5,1.97,-37.03,-37.21,0,*74
1496279020.4,16332,16.88,74050.5,1.95,-37.09,-37.45,0,*7D
1496279021.62,16333,16.88,74064.3,1.97,-37.03,-37.45,0,*74
1496279022.84,16334,16.88,74050.0,1.95,-36.91,-37.33,0,*7A
1496279024.07,16335,16.88,74038.5,1.93,-36.31,-36.85,0,*7B
1496279025.29,16336,16.88,74060.8,1.95,-36.13,-36.73,0,*77
1496279026.49,16337,16.88,74082.8,1.95,-36.19,-36.67,0,*79
1496279027.73,16338,16.88,74044.3,1.95,-35.77,-35.95,0,*73
1496279028.98,16339,16.88,74042.3,1.97,-35.95,-36.07,0,*74
1496279030.23,16340,16.88,74024.8,1.97,-36.31,-36.49,0,*7D
1496279031.47,16341,16.88,74010.3,1.97,-36.31,-36.61,0,*76
1496279032.7,16342,16.88,73976.0,1.95,-36.55,-36.91,0,*7A
1496279033.92,16343,16.88,73984.0,1.95,-36.91,-37.27,0,*7F
1496279035.12,16344,16.88,74006.3,1.95,-37.03,-37.27,0,*72
1496279036.35,16345,16.88,74014.0,1.93,-36.85,-37.27,0,*7A
1496279037.58,16346,16.88,74026.5,1.93,-36.73,-37.27,0,*70
1496279038.81,16347,16.88,74034.8,1.93,-36.73,-37.15,0,*70
1496279040.04,16348,16.88,74046.5,1.93,-36.73,-37.15,0,*7F
1496279041.27,16349,16.88,74060.8,1.93,-36.85,-37.15,0,*77
1496279042.5,16350,16.88,74070.3,1.93,-36.55,-37.03,0,*75
1496279043.78,16351,16.88,74076.8,1.93,-36.49,-36.91,0,*73
1496279044.99,16352,16.88,74084.3,1.91,-36.07,-36.55,0,*70
1496279046.22,16353,16.88,74078.8,1.91,-35.41,-35.77,0,*73
1496279047.44,16354,16.88,74050.5,1.91,-35.41,-35.77,0,*74
1496279048.68,16355,16.88,74042.8,1.95,-35.89,-35.95,0,*79
1496279049.88,16356,16.88,74038.0,1.95,-35.89,-36.19,0,*7D
1496279051.13,16357,16.88,74044.3,1.93,-35.77,-36.13,0,*71
1496279052.38,16358,16.88,74026.5,1.93,-35.41,-35.71,0,*7C
1496279053.6,16359,16.88,74012.8,1.95,-35.53,-35.77,0,*7E
1496279054.85,16360,16.88,73990.5,1.93,-36.01,-36.37,0,*71
1496279056.05,16361,16.88,73996.3,1.95,-35.89,-36.19,0,*79
1496279057.27,16362,16.88,73996.5,1.95,-35.71,-36.13,0,*77
1496279058.47,16363,16.88,74016.5,1.95,-35.71,-36.19,0,*7C
1496279059.72,16364,16.88,74004.0,1.95,-35.95,-36.37,0,*7D
1496279060.94,16365,16.88,74016.3,1.95,-35.17,-35.53,0,*77
1496279062.2,16366,16.88,74030.0,1.97,-34.83,-35.47,0,*7F
1496279063.47,16367,16.88,74008.5,1.97,-34.95,-35.35,0,*7C
1496279064.71,16368,16.88,74012.8,1.99,-35.23,-35.77,0,*77
1496279065.95,16369,16.88,73994.3,1.99,-35.41,-35.83,0,*79
1496279067.21,16370,16.88,73988.5,1.99,-34.95,-35.41,0,*77
1496279068.47,16371,16.88,73990.3,1.99,-34.53,-34.95,0,*74
1496279069.69,16372,16.88,73972.0,2.01,-33.83,-34.13,0,*71
1496279070.95,16373,16.88,73980.0,2.03,-34.53,-34.83,0,*71
1496279072.2,16374,16.88,74000.5,2.05,-35.35,-35.71,0,*7D
1496279073.43,16375,16.88,73996.8,2.05,-35.71,-36.01,0,*78
1496279074.69,16376,16.88,74028.5,2.11,-34.95,-35.23,0,*76
1496279075.92,16377,16.88,74058.0,2.07,-35.77,-36.25,0,*78
1496279077.17,16378,16.88,74066.3,2.05,-36.13,-36.67,0,*72
1496279078.39,16379,16.88,74058.8,2.05,-36.31,-36.85,0,*7F
1496279079.62,16380,16.88,74032.0,2.05,-36.85,-37.15,0,*7E
1496279080.86,16381,16.88,74014.5,2.05,-36.67,-37.15,0,*73
1496279082.08,16382,16.88,74014.3,2.05,-36.67,-36.97,0,*7B
1496279083.31,16383,16.88,74038.8,2.05,-36.31,-36.85,0,*7A
1496279084.56,16384,16.88,74036.3,2.05,-36.49,-36.97,0,*71
1496279085.82,16385,16.88,74020.8,2.05,-36.73,-37.09,0,*7F
1496279087.04,16386,16.88,74024.3,2.05,-36.67,-36.85,0,*7C
1496279088.26,16387,16.88,74026.0,2.07,-36.31,-36.61,0,*76
1496279089.52,16388,16.88,74020.3,2.05,-35.77,-36.13,0,*7F
1496279090.77,16389,16.88,74022.5,2.05,-35.83,-36.31,0,*75
1496279092.0,16390,16.88,74034.3,2.03,-36.37,-36.85,0,*78
1496279093.27,16391,16.88,74058.8,2.05,-36.49,-36.91,0,*73
1496279094.48,16392,16.88,74038.5,2.03,-36.01,-36.67,0,*73
1496279095.71,16393,16.88,74026.8,2.03,-36.37,-36.67,0,*77
1496279096.96,16394,16.88,74046.5,2.03,-36.37,-36.49,0,*7C
1496279098.19,16395,16.88,74042.3,2.03,-36.37,-36.31,0,*72
1496279099.42,16396,16.88,74026.5,2.01,-35.59,-35.29,0,*72
1496279100.66,16397,16.88,74016.0,2.03,-35.53,-35.23,0,*71
1496279101.91,16398,16.88,74042.8,2.05,-35.71,-35.41,0,*7C
1496279103.16,16399,16.88,74042.5,2.07,-35.65,-35.35,0,*79
1496279104.37,16400,16.88,74038.8,2.07,-35.65,-35.71,0,*7E
1496279105.61,16401,16.88,74036.0,2.03,-35.95,-36.01,0,*70
1496279106.85,16402,16.88,74036.0,2.03,-35.83,-36.01,0,*74
1496279108.07,16403,16.88,74034.5,2.03,-35.83,-36.19,0,*7C
1496279109.33,16404,16.88,74032.0,2.01,-35.89,-36.25,0,*7C
1496279110.58,16405,16.88,74034.3,2.03,-35.83,-36.13,0,*70
1496279111.79,16406,16.88,74010.5,2.03,-35.77,-36.19,0,*72
1496279113.01,16407,16.88,74030.8,2.03,-35.83,-36.19,0,*78
1496279114.24,16408,16.88,74032.0,2.03,-35.35,-35.71,0,*77
1496279115.47,16409,16.88,74008.5,2.03,-35.77,-36.37,0,*71
1496279116.69,16410,16.81,73990.0,2.01,-36.01,-36.43,0,*7A
1496279117.94,16411,16.88,74002.8,2.01,-36.01,-36.61,0,*7B
1496279119.22,16412,16.88,74002.8,2.01,-35.83,-36.13,0,*74
1496279120.48,16413,16.88,74014.3,2.03,-35.07,-35.41,0,*7F
1496279121.72,16414,16.88,74040.8,2.01,-35.65,-36.19,0,*70
1496279122.98,16415,16.88,74062.0,2.03,-35.95,-36.49,0,*79
1496279124.2,16416,16.88,74048.8,2.01,-35.89,-36.43,0,*7F
1496279125.44,16417,16.88,74016.0,2.01,-36.01,-36.55,0,*7A
1496279126.69,16418,16.88,74024.5,2.01,-36.43,-36.79,0,*7D
1496279127.92,16419,16.88,74012.5,2.01,-36.73,-37.15,0,*74
1496279129.17,16420,16.88,74014.3,2.01,-36.73,-37.21,0,*79
1496279130.43,16421,16.88,74006.8,2.01,-36.91,-37.33,0,*77
1496279131.68,16422,16.88,74014.0,2.01,-36.97,-37.51,0,*76
1496279132.91,16423,16.88,74016.5,2.01,-36.97,-37.57,0,*71
1496279134.14,16424,16.88,74018.8,1.99,-36.97,-37.69,0,*79
1496279135.36,16425,16.88,74026.0,1.99,-36.97,-37.69,0,*78
1496279136.58,16426,16.88,74008.5,1.97,-36.97,-37.45,0,*7B
1496279137.8,16427,16.88,74010.3,1.97,-36.97,-37.45,0,*7A
1496279139.05,16428,16.88,74002.8,1.97,-36.85,-37.39,0,*7D
1496279140.3,16429,16.88,74010.8,1.97,-36.61,-37.03,0,*7F
1496279141.54,16430,16.88,74000.0,1.99,-36.25,-36.55,0,*7B
1496279142.77,16431,16.88,74010.0,1.97,-35.71,-35.89,0,*74
1496279144.04,16432,16.88,74006.3,1.97,-35.65,-35.83,0,*78
1496279145.24,16433,16.88,74000.8,1.99,-35.89,-36.07,0,*7A
1496279146.44,16434,16.88,74014.5,1.99,-36.01,-36.19,0,*71
1496279147.66,16435,16.88,74008.8,1.99,-35.47,-35.41,0,*7F
1496279148.91,16436,16.88,74008.5,2.01,-35.41,-35.59,0,*71
1496279150.16,16437,16.88,74012.0,2.01,-35.77,-35.65,0,*7A
1496279151.36,16438,16.88,74012.3,2.03,-35.17,-35.17,0,*74
1496279152.63,16439,16.88,74022.8,2.05,-35.35,-35.41,0,*70
1496279153.86,16440,16.88,74020.8,2.05,-35.71,-35.71,0,*7D
1496279155.12,16441,16.88,74038.3,2.05,-36.49,-36.55,0,*71
1496279156.34,16442,16.88,74020.3,2.03,-35.95,-36.19,0,*7E
1496279157.59,16443,16.88,74024.0,2.01,-36.01,-36.37,0,*7F
1496279158.82,16444,16.88,74026.5,2.03,-36.49,-36.73,0,*76
1496279160.07,16445,16.88,74008.8,2.01,-36.55,-36.79,0,*72
1496279161.32,16446,16.88,73996.3,2.01,-36.37,-36.73,0,*7F
1496279162.58,16447,16.88,74012.5,2.01,-36.07,-36.61,0,*7E
1496279163.85,16448,16.88,74020.0,2.01,-36.37,-36.79,0,*7B
1496279165.12,16449,16.81,74012.8,2.01,-36.61,-36.91,0,*7F
1496279166.37,16450,16.81,74042.8,2.01,-36.43,-36.79,0,*71
1496279167.62,16451,16.88,74032.5,2.01,-36.43,-36.79,0,*70
1496279168.87,16452,16.88,74048.0,2.01,-36.37,-36.73,0,*7A
1496279170.13,16453,16.81,74024.0,2.01,-35.83,-36.19,0,*7B
1496279171.35,16454,16.88,74026.3,2.01,-35.89,-36.19,0,*76
1496279172.58,16455,16.88,74020.3,2.01,-36.07,-36.31,0,*78
1496279173.77,16456,16.88,74020.8,1.99,-36.19,-36.19,0,*7C
1496279174.98,16457,16.88,74034.3,1.99,-35.89,-36.01,0,*7E
1496279176.21,16458,16.88,74024.3,2.01,-36.07,-36.19,0,*7F
1496279177.46,16459,16.88,74024.8,2.01,-35.29,-35.65,0,*79
1496279178.7,16460,16.88,74024.0,1.99,-35.41,-35.65,0,*7F
1496279179.9,16461,16.88,74016.0,1.99,-35.59,-36.01,0,*76
1496279181.12,16462,16.88,74006.3,1.99,-35.41,-36.07,0,*7A
1496279182.33,16463,16.88,74014.5,1.99,-35.29,-35.77,0,*71
1496279183.56,16464,16.88,74000.8,2.01,-35.29,-35.77,0,*74
1496279184.81,16465,16.88,73984.0,2.01,-35.65,-36.07,0,*79
1496279186.06,16466,16.88,73988.5,2.01,-35.77,-36.25,0,*79
1496279187.29,16467,16.88,74006.8,2.03,-36.01,-36.61,0,*78
1496279188.57,16468,16.88,74012.3,2.01,-36.25,-36.79,0,*7A
1496279189.82,16469,16.81,74022.8,2.01,-36.43,-36.79,0,*7B
1496279191.05,16470,16.88,74016.0,2.03,-35.95,-36.31,0,*75
1496279192.25,16471,16.88,74026.3,2.03,-36.19,-36.73,0,*75
1496279193.48,16472,16.88,74036.0,2.01,-36.55,-36.97,0,*76
1496279194.73,16473,16.88,74050.5,2.01,-36.43,-36.91,0,*76
1496279195.98,16474,16.88,74032.3,2.01,-36.55,-36.61,0,*79
1496279197.21,16475,16.88,74052.0,2.03,-36.49,-36.73,0,*74
1496279198.44,16476,16.88,74048.3,2.01,-36.43,-36.73,0,*7F
1496279199.69,16477,16.88,74044.3,2.01,-36.55,-36.79,0,*73
1496279200.94,16478,16.88,74032.3,2.01,-36.73,-36.91,0,*7E
1496279202.17,16479,16.88,74028.8,2.01,-36.73,-37.03,0,*75
1496279203.42,16480,16.88,74050.5,2.01,-36.61,-36.97,0,*7C
1496279204.65,16481,16.88,74052.0,2.03,-36.61,-36.97,0,*7F
1496279205.87,16482,16.88,74050.0,1.99,-36.79,-37.33,0,*7A
1496279207.12,16483,16.88,74046.3,1.99,-36.91,-37.39,0,*77
1496279208.37,16484,16.88,74046.0,1.99,-36.79,-37.21,0,*7F
1496279209.6,16485,16.88,74008.5,1.99,-36.43,-36.91,0,*7D
1496279210.8,16486,16.88,74008.5,1.99,-36.07,-36.43,0,*71
1496279212.05,16487,16.88,74020.8,1.99,-35.41,-35.83,0,*7E
1496279213.26,16488,16.88,74026.3,1.99,-35.41,-35.59,0,*76
1496279214.54,16489,16.81,74058.0,2.01,-35.83,-36.13,0,*76
1496279215.77,16490,16.88,74058.5,2.03,-35.01,-35.07,0,*70
1496279217.05,16491,16.81,74044.3,2.01,-36.37,-36.79,0,*7F
1496279218.3,16492,16.88,74026.3,2.03,-35.95,-36.13,0,*79
1496279219.53,16493,16.88,74034.0,2.07,-35.71,-35.95,0,*7B
1496279220.75,16494,16.88,74036.3,2.07,-36.61,-36.85,0,*7C
1496279221.98,16495,16.88,74040.8,2.05,-36.97,-37.27,0,*7F
1496279223.25,16496,16.88,74048.5,2.05,-36.91,-36.91,0,*76
1496279224.51,16497,16.88,74066.5,2.03,-36.37,-36.49,0,*78
1496279225.72,16498,16.88,74046.3,2.03,-36.01,-36.01,0,*7E
1496279226.95,16499,16.88,74048.5,2.03,-35.95,-36.19,0,*78
1496279228.15,16500,16.88,74032.3,2.03,-36.31,-36.31,0,*7E
1496279229.38,16501,16.88,74034.3,2.03,-36.49,-36.67,0,*73
1496279230.61,16502,16.88,74012.0,2.05,-36.73,-36.85,0,*73
1496279231.84,16503,16.81,74016.0,2.05,-36.73,-36.85,0,*72
1496279233.05,16504,16.88,74018.8,2.07,-36.61,-36.85,0,*74
1496279234.28,16505,16.88,74028.0,2.03,-36.55,-36.91,0,*73
1496279235.48,16506,16.88,74016.8,2.03,-36.55,-36.85,0,*75
1496279236.71,16507,16.81,74038.0,2.03,-36.73,-36.91,0,*75
1496279237.94,16508,16.88,74014.8,2.03,-35.17,-35.35,0,*76
1496279239.17,16509,16.88,74014.8,2.03,-34.65,-34.71,0,*72
1496279240.44,16510,16.88,74004.0,2.05,-33.89,-33.89,0,*79
1496279241.64,16511,16.88,74022.5,2.07,-33.55,-33.55,0,*7A
1496279242.89,16512,16.88,74024.3,2.11,-34.01,-33.77,0,*78
1496279244.17,16513,16.88,74022.0,2.13,-34.01,-33.49,0,*76
1496279245.43,16514,16.88,74036.3,2.17,-34.47,-33.73,0,*7E
1496279246.69,16515,16.81,74042.8,2.17,-34.13,-33.73,0,*7E
1496279247.95,16516,16.88,74056.5,2.17,-34.13,-33.73,0,*7D
1496279249.22,16517,16.88,74040.8,2.17,-34.35,-34.31,0,*79
1496279250.51,16518,16.81,74030.8,2.17,-34.65,-34.65,0,*72
1496279251.76,16519,16.88,74040.3,2.19,-34.83,-34.95,0,*7A
1496279252.96,16520,16.88,74028.8,2.19,-34.41,-34.59,0,*7E
1496279254.19,16521,16.88,74032.8,2.19,-34.65,-35.13,0,*76
1496279255.42,16522,16.88,74042.8,2.19,-34.41,-34.65,0,*73
1496279256.66,16523,16.88,74040.0,2.21,-34.77,-35.13,0,*7C
1496279257.89,16524,16.88,74032.5,2.21,-34.41,-34.89,0,*7C
1496279259.12,16525,16.81,74010.5,2.19,-34.65,-35.13,0,*72
1496279260.4,16526,16.88,74022.5,2.21,-34.53,-35.07,0,*7A
1496279261.65,16527,16.88,74038.5,2.21,-35.41,-35.71,0,*78
1496279262.91,16528,16.88,74036.0,2.23,-35.83,-36.25,0,*79
1496279264.17,16529,16.88,74014.3,2.21,-36.25,-36.67,0,*73
1496279265.42,16530,16.88,74040.8,2.21,-36.61,-36.97,0,*74
1496279266.66,16531,16.88,73990.8,2.21,-36.43,-36.67,0,*7A
1496279267.89,16532,16.88,73988.8,2.21,-36.19,-36.43,0,*70
1496279269.09,16533,16.88,74006.3,2.19,-36.31,-36.43,0,*70
1496279270.34,16534,16.88,74000.0,2.21,-36.43,-36.37,0,*7A
1496279271.55,16535,16.81,74000.8,2.19,-35.77,-35.29,0,*78
1496279272.81,16536,16.88,74004.3,2.21,-33.83,-33.31,0,*72
1496279274.04,16537,16.88,73992.5,2.21,-33.67,-33.15,0,*7F
1496279275.29,16538,16.88,74000.8,2.25,-35.23,-34.71,0,*77
1496279276.55,16539,16.81,74010.0,2.25,-35.07,-34.71,0,*70
1496279277.82,16540,16.81,74010.0,2.25,-34.53,-34.35,0,*7E
1496279279.05,16541,16.88,74022.8,2.25,-35.01,-34.89,0,*7E
1496279280.28,16542,16.88,74020.8,2.25,-35.17,-35.59,0,*76
1496279281.56,16543,16.88,74036.5,2.25,-35.35,-35.83,0,*70
1496279282.78,16544,16.81,74032.5,2.25,-35.59,-36.31,0,*77
1496279283.99,16545,16.88,74056.0,2.23,-35.89,-36.55,0,*7F
1496279285.21,16546,16.81,74064.5,2.23,-36.07,-36.61,0,*7E
1496279286.44,16547,16.88,74048.5,2.23,-36.25,-36.85,0,*75
1496279287.69,16548,16.88,74072.5,2.23,-36.37,-36.79,0,*7A
1496279288.91,16549,16.88,74064.0,2.23,-36.61,-37.03,0,*74
1496279290.11,16550,16.81,74066.8,2.19,-36.67,-37.03,0,*73
1496279291.36,16551,16.81,74064.3,2.19,-36.61,-36.91,0,*7E
1496279292.62,16552,16.88,74030.0,2.21,-36.43,-36.61,0,*79
1496279293.84,16553,16.88,74004.0,2.19,-36.31,-36.49,0,*7C
1496279295.09,16554,16.88,74028.3,2.19,-36.61,-36.61,0,*74
1496279296.34,16555,16.88,74032.3,2.19,-36.49,-36.61,0,*7F
1496279297.57,16556,16.81,74022.0,2.19,-36.31,-36.61,0,*73
1496279298.77,16557,16.81,74042.8,2.19,-36.07,-36.43,0,*77
1496279300.04,16558,16.81,74042.8,2.21,-36.25,-36.55,0,*74
1496279301.29,16559,16.81,74054.8,2.19,-36.25,-36.61,0,*79
1496279302.51,16560,16.88,74042.3,2.19,-35.17,-35.35,0,*73
1496279303.71,16561,16.81,74040.0,2.19,-35.17,-35.29,0,*7F